RH
67 77 94 100 100 100 99 100 97 100 91 83 84 80 82 83 98 95 91 87 81 87 98 97 95 97 97 98 96 92 94 94 88 89 84 78 74 59
83 98 99 99 100 99 99 94 98 100 100 89 81 82 82 89 94 92 86 87 86 88 92 92 87 87 86 90 88 84 88 91 88 80 73 66 41 23
45 44 73 89 98 99 98 100 100 100 96 86 87 86 87 100 100 92 89 83 83 83 86 90 91 88 92 91 79 84 84 79 74 54 25 11 8 10
38 43 51 67 97 99 100 88 94 100 93 88 88 90 96 100 100 91 89 83 84 89 94 89 96 88 88 87 83 82 78 45 16 9 6 6 7 12
53 62 62 99 91 83 96 94 100 97 96 93 90 90 90 89 92 90 86 85 92 88 87 87 86 85 82 73 41 17 10 8 6 6 8 19 28 29
66 75 97 96 100 100 100 98 99 100 97 95 92 88 88 89 88 87 89 92 88 86 84 80 69 38 15 11 9 7 6 7 9 19 28 28 27 28
98 100 99 100 98 98 99 100 99 94 90 90 87 90 89 87 86 87 88 88 84 66 34 15 11 10 9 8 7 8 10 19 28 29 28 29 30 30
98 98 98 94 92 100 100 98 92 93 92 92 91 87 88 86 86 85 84 73 45 13 12 13 8 9 10 10 16 28 31 29 28 29 30 30 30 30
97 97 95 95 99 96 94 92 91 92 93 89 90 89 85 81 67 37 22 13 12 12 12 11 10 14 17 25 31 31 29 29 30 30 29 29 31 30
93 95 97 90 92 94 92 94 94 93 89 86 82 69 33 15 12 10 10 10 11 11 11 12 12 22 30 32 31 30 30 30 29 29 30 32 35 38
100 100 98 99 92 99 95 93 90 87 69 38 15 8 6 7 8 8 8 9 11 12 18 19 21 32 34 34 31 31 31 31 31 33 35 34 37 40
100 100 100 100 98 97 88 56 24 10 7 6 7 7 7 8 8 8 9 10 12 14 21 31 31 35 34 31 32 33 33 33 34 36 39 40 47 48
100 100 98 100 88 53 19 8 7 7 7 8 8 8 9 10 10 10 11 11 12 16 29 38 36 38 38 34 35 38 38 39 43 47 51 52 52 53
100 98 88 47 18 9 8 7 8 8 8 7 8 9 9 9 9 10 12 14 18 30 33 39 43 43 41 37 38 40 44 49 50 51 53 54 57 58
87 51 23 15 11 10 10 8 9 8 8 8 8 9 9 9 10 12 13 17 26 33 38 41 43 47 46 43 43 42 42 43 50 53 59 55 52 53
26 18 15 13 10 10 10 10 9 10 10 9 9 10 10 10 12 12 13 19 26 34 37 40 44 46 48 48 49 44 48 50 49 53 55 47 43 47
19 16 13 11 10 10 11 12 11 11 10 9 9 10 10 12 13 12 12 14 18 23 28 33 37 40 42 40 34 36 37 36 42 36 39 38 38 51
18 13 10 10 11 12 14 14 12 11 11 10 10 11 11 12 12 12 12 13 13 14 14 16 18 21 21 20 25 26 28 32 37 38 40 47 47 52
18 13 11 11 10 11 12 13 12 13 12 12 12 12 13 13 15 14 15 16 16 17 18 20 21 25 28 25 27 34 38 43 42 44 50 58 64 61
20 19 17 14 10 8 10 12 12 12 12 13 14 14 14 15 16 17 17 19 19 20 20 22 25 30 38 42 38 36 47 50 51 58 66 68 65 60
22 19 18 17 15 14 10 10 11 11 12 13 13 14 14 15 16 18 20 21 22 23 23 25 35 41 43 50 52 43 49 57 65 73 73 68 61 56
29 23 19 18 17 17 17 16 13 10 9 11 12 13 14 14 14 17 20 22 24 25 25 27 33 40 47 52 53 58 57 60 70 73 72 76 77 81
86 34 26 22 20 19 18 18 17 15 14 10 10 11 13 13 14 16 18 21 24 26 27 28 32 41 49 59 66 65 65 66 69 64 59 68 72 74
Wind_Speed
34 30 28 25 24 26 25 24 26 24 22 19 19 18 19 18 16 16 14 15 15 14 16 18 19 20 22 23 22 23 23 21 20 19 19 18 18 15
30 28 26 26 25 26 25 28 26 26 22 17 16 17 19 19 16 16 17 15 14 14 14 17 16 17 18 20 19 19 19 19 19 17 17 16 15 15
31 32 31 28 28 27 26 29 23 28 26 21 19 18 21 19 19 16 15 15 14 15 17 17 17 16 17 18 17 16 17 18 17 15 16 16 16 16
27 28 29 26 28 25 27 29 29 25 23 23 21 20 20 19 17 15 16 15 14 15 14 13 12 11 13 15 16 16 16 15 15 16 16 15 15 12
23 22 21 21 26 26 21 22 27 26 23 22 22 20 15 17 18 16 15 14 13 10 12 12 13 14 15 15 15 15 15 16 16 15 13 8 7 8
22 22 19 21 22 23 22 24 21 18 20 20 19 17 17 18 17 14 13 13 11 11 12 13 14 14 14 15 15 14 15 14 11 8 7 8 9 10
19 18 20 19 21 23 19 20 20 20 22 19 18 18 16 16 16 13 14 13 13 12 14 14 14 13 14 13 13 12 10 7 7 8 8 10 12 13
19 20 21 22 23 22 21 20 20 17 18 18 17 16 17 16 15 13 13 14 15 13 12 10 10 11 11 10 7 6 6 7 8 9 11 13 13 14
17 18 20 19 18 19 20 19 19 17 18 15 14 16 16 14 14 13 14 14 15 15 13 12 10 8 7 6 6 7 8 9 11 13 14 13 12 12
17 18 18 17 17 16 17 16 17 16 16 14 13 14 13 14 14 14 14 14 14 14 11 9 9 7 7 6 6 8 10 11 12 11 9 10 12 15
15 15 15 14 14 14 14 13 13 14 13 13 13 14 15 14 14 14 14 13 13 11 9 8 7 6 8 9 10 10 11 11 11 11 11 14 18 20
14 14 14 14 14 13 13 11 11 12 12 12 12 13 12 12 12 12 11 10 11 9 9 9 7 6 5 9 10 8 7 9 11 13 17 20 20 23
14 14 14 12 13 12 11 10 11 11 11 11 10 10 10 10 10 8 9 10 11 12 6 7 7 8 9 10 10 11 12 12 13 14 16 19 21 23
12 12 12 11 11 11 11 11 11 10 10 9 9 9 9 8 8 8 8 9 10 11 10 10 11 11 12 14 13 12 12 13 15 15 17 17 16 20
12 11 11 11 11 12 11 9 10 9 9 8 9 9 8 7 7 8 8 9 10 11 13 13 13 14 15 16 17 16 17 15 17 12 18 21 21 21
12 13 13 13 13 12 11 9 9 9 8 8 9 8 7 8 8 7 9 10 11 12 13 13 14 16 16 17 20 19 17 17 18 20 22 22 22 21
15 16 16 15 13 12 11 10 9 9 9 9 9 8 8 7 8 8 9 10 11 11 12 13 14 15 16 18 20 18 17 17 15 19 20 22 22 22
18 18 16 15 14 12 11 11 11 10 9 10 10 9 8 9 10 9 8 9 10 10 11 11 13 14 15 16 15 13 15 15 15 16 18 24 25 22
20 19 17 16 14 14 13 12 11 11 12 12 11 11 11 11 12 10 10 11 10 10 10 11 12 13 15 18 16 15 15 14 18 20 21 23 27 26
24 22 20 18 16 15 14 14 13 14 14 13 13 13 14 14 14 13 13 13 13 12 13 12 13 14 17 18 20 17 17 19 20 23 23 23 24 23
27 23 22 20 19 17 16 16 16 16 16 16 16 16 16 17 17 16 16 16 16 16 15 13 12 16 18 19 23 21 19 18 20 22 23 24 24 23
28 26 24 23 22 21 20 20 19 20 20 19 19 19 18 19 20 18 19 19 18 18 18 15 16 17 19 21 25 25 22 19 18 17 17 17 21 24
27 29 27 25 23 23 23 24 24 23 23 23 22 21 21 22 21 21 21 21 21 20 18 18 18 20 22 22 24 26 24 22 20 19 16 14 17 20
Wind_Direction
271 270 270 270 263 259 264 264 264 249 260 266 273 285 283 282 273 274 270 268 266 265 257 258 255 255 262 266 273 276 277 278 284 282 284 287 288 285
267 266 265 265 263 258 263 267 260 252 254 260 274 284 286 276 270 275 276 270 266 259 257 258 261 266 267 267 271 277 280 278 278 279 284 285 282 281
267 268 262 262 258 253 262 256 248 258 246 257 264 274 276 273 268 269 270 275 274 271 265 262 262 260 263 270 271 273 275 275 278 280 281 282 281 282
267 264 261 258 253 264 242 257 264 243 245 255 261 267 273 272 262 264 264 273 276 272 263 263 259 263 270 271 275 276 278 279 280 281 285 284 284 283
266 262 262 247 252 250 248 249 236 247 250 259 264 266 261 260 261 264 262 267 265 263 262 259 265 272 272 271 272 275 278 279 282 285 283 275 273 276
261 259 250 251 246 248 251 248 239 243 251 256 257 257 254 257 253 253 255 255 256 263 265 267 268 269 271 274 277 278 277 278 277 268 267 275 279 284
263 257 251 246 242 242 247 249 253 254 253 247 252 254 251 245 247 247 251 256 260 263 269 272 272 272 271 272 272 274 265 253 254 265 272 278 284 290
259 255 253 252 247 239 236 240 245 245 251 244 242 245 244 240 244 244 249 253 262 271 271 277 278 273 271 268 253 234 244 254 259 267 273 278 284 285
256 247 243 241 240 238 240 240 246 243 239 239 234 234 239 246 249 251 251 256 265 267 273 277 270 261 244 228 229 250 257 261 268 273 277 279 278 282
249 245 242 240 239 239 236 229 226 228 230 231 234 240 247 252 253 255 255 256 257 266 271 264 251 227 234 249 254 259 267 269 271 270 258 271 284 287
238 232 233 233 234 228 220 214 212 217 223 230 235 243 252 253 254 257 253 253 250 251 251 241 232 233 249 255 264 265 269 271 268 256 261 285 292 291
237 233 236 232 226 220 214 211 215 222 232 238 241 246 250 252 251 246 248 244 241 248 232 232 245 247 259 255 261 272 273 278 271 267 272 285 290 295
238 242 238 224 219 220 219 228 233 234 236 236 238 241 235 238 243 243 240 240 239 234 224 229 245 258 259 272 280 282 283 281 279 279 284 287 285 288
236 231 226 219 222 233 238 237 240 237 235 232 233 232 237 232 239 239 238 233 231 244 246 254 269 279 280 282 286 287 288 287 290 291 286 282 284 288
227 229 230 232 233 239 246 239 239 234 226 227 234 237 238 238 233 238 239 243 242 248 263 270 274 277 282 289 292 293 297 298 297 292 291 292 295 294
233 237 241 240 240 241 240 235 231 228 229 234 238 238 238 243 252 257 256 253 254 258 262 268 273 278 282 285 287 294 300 298 297 300 299 299 302 305
239 242 243 243 243 242 238 238 234 234 236 239 245 244 242 249 253 259 261 264 264 265 267 269 271 274 277 282 286 296 299 296 300 301 304 305 307 309
240 241 243 245 246 247 246 244 242 243 244 248 249 253 256 258 260 264 272 278 281 286 288 284 282 282 287 290 294 300 295 299 297 299 303 303 304 306
241 240 244 247 250 252 250 249 250 251 247 248 252 256 258 260 266 272 276 279 286 288 289 287 291 290 294 299 302 300 304 304 309 306 306 303 302 309
241 241 247 252 255 254 255 255 256 254 256 257 258 258 260 262 265 270 275 279 282 282 284 288 293 294 290 293 294 303 296 301 299 300 302 299 300 302
250 250 252 256 258 258 256 256 258 261 262 259 259 260 262 263 266 267 268 272 277 281 285 291 293 281 284 289 291 306 308 304 304 304 307 307 310 310
252 254 256 257 258 258 258 258 258 259 262 263 264 264 263 263 265 267 268 270 273 280 286 287 281 280 279 282 290 295 302 305 303 297 295 297 302 295
246 258 261 263 262 261 259 258 258 259 261 264 264 263 264 264 267 266 267 268 271 274 278 282 282 280 283 285 289 294 300 305 306 300 293 296 293 293